Other Surface Observations
Issued by NWS Charleston, SC

Home | Current Version | Previous Version | Text Only | Print | Product List | Glossary On
Versions: 1 2 3 4 5 6 7 8 9 10 11 12 13 14 15 16 17 18 19 20 21 22 23 24 25 26 27 28 29 30 31 32 33 34 35 36 37 38 39 40 41 42 43 44 45 46 47 48 49 50
000
SXUS52 KCHS 041027
OSOCHS

MARINE OBSERVATIONS
NATIONAL WEATHER SERVICE CHARLESTON SC
600 AM EDT TUE AUG 04 2015

...DOWNTOWN CHARLESTON AND HARBOR...

CITY           SKY/WX    TMP DP  RH WIND       PRES   REMARKS
WATERFRONT PRK   N/A     78  77  96 VRB2      29.85R

...LAKE MOULTRIE...

CITY           SKY/WX    TMP DP  RH WIND       PRES   REMARKS
PINOPOLIS      NOT AVBL

...LAKE AND SUPPLEMENTAL COASTAL OBSERVATIONS...

STATION/POSITION TIME  TEMP    WIND        PRES    WAVE   SWELL
                       AIR SEA DIR/SP/G            HT/PER HT/PER/DIR
                 (UTC) (F)     (DEG/KT/KT) (MB)    (FT/S) (FT/S/D)
FORT PULASKI     1000   76 85  280/  9/ 10 1013.4R
SAPELO ISLAND    1000   79     250/  5     1013.0S
UPR LAKE MARION  NOT AVBL
WINYAH BAY       0945   75     180/  9     1011.0F
LAKE MURRAY      1000   74     350/  3/  6 1013.9R
ACE BASIN NERRS  NOT AVBL


...C-MAN AND BUOY OBSERVATIONS...

STATION/POSITION TIME  TEMP    WIND        PRES    WAVE   SWELL
                       AIR SEA DIR/SP/G            HT/PER HT/PER/DIR
                 (UTC) (F)     (DEG/KT/KT) (MB)    (FT/S) (FT/S/D)
BUOY 41004       0950   80 83  190/ 19/ 23 1011.3R   8/ 6   2/11
BUOY 41008       0950   80 83  260/ 10/ 14 1012.8S   4/ 7   3/140/ 7
FOLLY BEACH CMAN 1000   78     270/  4/  6 1011.9R
CAPERS NS BUOY   0908   81     200/ 16/ 21 1010.9F
FRIPP NS BUOY    0900   80     280/ 10/ 14 1011.4R
5E ST. MARYS GA  0921      82                N/A     3/ 5   2/100/11


STATION/POSITION TIME  TEMP    WIND        PRES    WAVE   SWELL
                       AIR SEA DIR/SP/G            HT/PER HT/PER/DIR
                 (UTC) (F)     (DEG/KT/KT) (MB)    (FT/S) (FT/S/D)
FRYING PAN BUOY  0950   83 82  160/ 19/ 23 1014.8S   6/ 7   2/200/11
BUOY 41025       0950   83 84  200/ 17/ 21 1016.0R   4/ 5   2/160/ 8
CAPE LOOKOUT NC  1000   80     200/ 10/ 14 1015.5R
BUOY 41002       0950   81 81  210/  8/ 10 1018.4R   5/ 7   5/210/ 7
BUOY 41010       0920   83 84  200/ 14/ 16 1016.7R
ST AUGUSTINE FL  1000   75 77  210/  9/ 11 1015.7R

$$



USA.gov is the U.S. government's official web portal to all federal, state and local government web resources and services.